Location: Ash Swamp
(41.5170°N, 74.6157°W)
Time: 02:48:31
(UTC+00:00)

ERS-1 Rocket - Pass Details

Date: 14 July 2020
Orbit: 752 x 758 km, 98.5° (Epoch: 14 August)

Event Time Altitude Azimuth Distance (km) Brightness Sun altitude
Exits shadow 03:16:30 26° 216° (SW) 1,448 4.2 -22.1°
Maximum altitude 03:18:33 38° 262° (W) 1,154 4.0 -22.3°
Drops below altitude 10° 03:23:15 10° 330° (NNW) 2,294 6.6 -22.7°
Sets 03:25:43 0° 339° (NNW) 3,223 7.7 -22.9°
